TimeMST,TemperatureF,Dew PointF,Humidity,Sea Level PressureIn,VisibilityMPH,Wind Direction,Wind SpeedMPH,Gust SpeedMPH,PrecipitationIn,Events,Conditions,WindDirDegrees,DateUTC
12:53 AM,37.0,27.0,67,29.92,10.0,West,8.1,-,N/A,,Overcast,280,2012-12-06 07:53:00
1:53 AM,36.0,28.0,73,29.95,10.0,NNW,6.9,-,N/A,,Overcast,330,2012-12-06 08:53:00
2:53 AM,36.0,28.9,76,29.96,10.0,Calm,Calm,-,N/A,,Overcast,0,2012-12-06 09:53:00
3:53 AM,36.0,27.0,70,29.96,10.0,NNE,5.8,-,N/A,,Overcast,20,2012-12-06 10:53:00
4:53 AM,34.0,21.0,59,29.98,10.0,NNE,5.8,-,N/A,,Overcast,30,2012-12-06 11:53:00
5:53 AM,32.0,19.0,59,29.99,10.0,North,8.1,-,N/A,,Overcast,10,2012-12-06 12:53:00
6:53 AM,32.0,18.0,56,30.01,10.0,North,4.6,-,N/A,,Overcast,360,2012-12-06 13:53:00
7:53 AM,30.9,15.1,52,30.02,10.0,ENE,11.5,-,N/A,,Mostly Cloudy,70,2012-12-06 14:53:00
8:53 AM,33.1,12.9,43,30.01,10.0,East,9.2,-,N/A,,Mostly Cloudy,80,2012-12-06 15:53:00
9:00 AM,32.0,12.2,44,29.99,10.0,East,8.1,-,N/A,,Overcast,90,2012-12-06 16:00:00
9:53 AM,35.1,15.1,44,29.98,10.0,East,5.8,-,N/A,,Overcast,100,2012-12-06 16:53:00
10:37 AM,37.4,17.6,45,29.98,10.0,WSW,3.5,-,N/A,,Clear,250,2012-12-06 17:37:00
10:53 AM,37.0,18.0,46,29.97,10.0,South,5.8,-,N/A,,Clear,190,2012-12-06 17:53:00
11:53 AM,37.9,21.9,53,29.92,10.0,SSW,9.2,-,N/A,,Clear,210,2012-12-06 18:53:00
12:53 PM,44.1,21.0,40,29.87,10.0,SW,11.5,-,N/A,,Clear,220,2012-12-06 19:53:00
1:53 PM,48.0,19.9,33,29.81,10.0,SSW,10.4,-,N/A,,Clear,210,2012-12-06 20:53:00
2:53 PM,46.0,19.9,35,29.79,10.0,NW,9.2,-,N/A,,Clear,320,2012-12-06 21:53:00
3:53 PM,41.0,21.0,45,29.82,10.0,Calm,Calm,-,N/A,,Clear,0,2012-12-06 22:53:00
4:53 PM,39.9,19.0,43,29.83,10.0,WSW,8.1,-,N/A,,Clear,240,2012-12-06 23:53:00
5:53 PM,39.9,18.0,41,29.83,10.0,SW,8.1,-,N/A,,Clear,230,2012-12-07 00:53:00
6:53 PM,39.9,18.0,41,29.83,10.0,SW,10.4,-,N/A,,Clear,230,2012-12-07 01:53:00
7:53 PM,42.1,18.0,38,29.81,10.0,WSW,15.0,20.7,N/A,,Clear,240,2012-12-07 02:53:00
8:53 PM,39.9,18.0,41,29.80,10.0,SW,11.5,-,N/A,,Clear,230,2012-12-07 03:53:00
9:53 PM,37.0,18.0,46,29.80,10.0,WSW,10.4,-,N/A,,Clear,250,2012-12-07 04:53:00
10:53 PM,25.0,17.1,72,29.83,10.0,NNW,10.4,-,N/A,,Clear,340,2012-12-07 05:53:00
11:53 PM,23.0,15.1,72,29.82,10.0,NW,9.2,-,N/A,,Partly Cloudy,310,2012-12-07 06:53:00